Regional Weather Roundup
Issued by NWS Sterling, VA

Home | Current Version | Previous Version | Text Only | Print | Product List | Glossary On
Versions: 1 2 3 4 5 6 7 8 9 10 11 12 13 14 15 16 17 18 19 20 21 22 23 24 25 26 27
000
ASUS41 KLWX 281011
RWRLWX

REGIONAL WEATHER ROUNDUP
NATIONAL WEATHER SERVICE BALTIMORE MD/WASHINGTON DC
500 AM EST TUE FEB 28 2017

Note: "FAIR" indicates few or no clouds below 12,000 feet
with no significant weather and/or obstructions to visibility.
 TC=TEMPERATURE CELSIUS

 * =Non NWS site. Station does not report precipitation (e.g. rain,
    snow, etc.), thunder, or fog.

DCZ001-MDZ009-015-VAZ040>042-051-053>054-281100-
WASHINGTON METRO

CITY           SKY/WX    TMP DP  RH WIND       PRES   REMARKS
WASHINGTON NAT CLOUDY    49  36  61 CALM      30.32S
DULLES         CLOUDY    39  33  79 SE3       30.31S
ANDREWS AFB    CLOUDY    45  36  70 CALM      30.30S
FT BELVOIR     CLOUDY    45  35  67 CALM      30.31S
QUANTICO       MOCLDY    46  39  76 NW6       30.33R
COLLEGE PARK*  CLOUDY    41  34  75 CALM      30.31F
LEESBURG*      CLOUDY    39  36  87 MISG      30.31S
MANASSAS*      CLOUDY    41  37  86 CALM      30.32S
GAITHERSBURG*  CLOUDY    41  28  60 SE3       30.35S

$$

MDZ006>007-011-014-281100-
BALTIMORE METRO

CITY           SKY/WX    TMP DP  RH WIND       PRES   REMARKS
BWI AIRPORT    MOCLDY    43  36  76 CALM      30.32R
MD SCIENCE CTR   N/A     49  36  61 MISG      30.32S
MARTIN STATE   CLOUDY    43  41  93 CALM      30.34S
ANNAPOLIS      CLOUDY    47  42  83 CALM      30.32S
FORT MEADE*    CLOUDY    39  34  81 CALM      30.34S

$$

MDZ012-015-019>023-281100-
MARYLAND EASTERN SHORE

CITY           SKY/WX    TMP DP  RH WIND       PRES   REMARKS
OCEAN CITY     CLOUDY    48  45  89 CALM      30.33F
SALISBURY      CLOUDY    49  45  86 CALM      30.32R
BAY BRIDGE AP* CLOUDY    45  43  93 CALM      30.32S
CAMBRIDGE*     MOCLDY    45  41  87 CALM      30.32S
EASTON*        CLOUDY    47  38  73 CALM      30.35S

$$

MDZ017>025-281100-
SOUTHERN MARYLAND

CITY           SKY/WX    TMP DP  RH WIND       PRES   REMARKS
PATUXENT RIVER PTCLDY    43  42  97 E3        30.31S
ST INIGOES     MOCLDY    46  42  86 CALM      30.31S
LEONARDTOWN*   PTCLDY    48  43  81 CALM      30.32S

$$

MDZ003>005-281100-
NORTH CENTRAL MARYLAND

CITY           SKY/WX    TMP DP  RH WIND       PRES   REMARKS
FREDERICK*     CLOUDY    36  36 100 CALM      30.34R
HAGERSTOWN APT CLOUDY    40  33  76 CALM      30.28F
WESTMINSTER*   MOCLDY    43  34  70 CALM      30.31S

$$

MDZ501>502-281100-
WESTERN MARYLAND

CITY           SKY/WX    TMP DP  RH WIND       PRES   REMARKS
OAKLAND*       CLOUDY    37  30  75 S5        30.23S
CUMBERLAND*    CLOUDY    37  36  93 CALM      30.32S

$$

VAZ025>031-281100-
SHENANDOAH VALLEY

CITY           SKY/WX    TMP DP  RH WIND       PRES   REMARKS
WINCHESTER*    MOCLDY    37  28  70 CALM      30.28S
FRONT ROYAL*   CLOUDY    36  30  80 CALM      30.28S
LURAY*         CLOUDY    36  34  93 CALM      30.28S
NEW MARKET*    CLOUDY    31  27  84 CALM      30.29S
STAUNTON*      CLOUDY    33  28  83 CALM      30.30S
WAYNESBORO*    CLEAR     37  26  63 CALM      30.28F

$$

WVZ021-048>050-054>055-281100-
EASTERN WEST VIRGINIA PANHANDLE

CITY           SKY/WX    TMP DP  RH WIND       PRES   REMARKS
MARTINSBURG    CLOUDY    38  29  70 CALM      30.28F
PETERSBURG*    CLOUDY    37  33  86 CALM      30.28F

$$

VAZ036>039-050-281100-
CENTRAL FOOTHILLS

CITY           SKY/WX    TMP DP  RH WIND       PRES   REMARKS
CHARLOTTESVILL MOCLDY    47  30  51 CALM      30.28F
CULPEPER*      CLOUDY    40  35  80 CALM      30.31F
ORANGE*        MOCLDY    45  34  65 CALM      30.31F
GORDONSVILLE*  CLOUDY    44  38  78 CALM      30.30F
WARRENTON*     CLOUDY    40  32  74 SE5       30.30F

$$

VAZ055>057-281100-
NORTH AND CENTRAL PIEDMONT

CITY           SKY/WX    TMP DP  RH WIND       PRES   REMARKS
FREDERICKSBRG* MOCLDY    47  40  76 CALM      30.31S
STAFFORD*      MOCLDY    44  36  72 CALM      30.36S

$$

NCZ024-NYZ072-PAZ021-071-VAZ022-071-281100-
OTHER REGIONAL OBSERVATIONS

CITY           SKY/WX    TMP DP  RH WIND       PRES   REMARKS
NEW YORK CITY  CLOUDY    48  34  58 NE3       30.37F
PHILADELPHIA   CLOUDY    46  36  68 CALM      30.34S
PITTSBURGH     CLOUDY    38  37  97 SE3       30.19F
ROANOKE        CLEAR     41  30  65 CALM      30.31S
RICHMOND       MOCLDY    48  43  82 SE5       30.30F
RALEIGH        PTCLDY    53  47  79 CALM      30.30S

$$

ANZ530>537-281100-
MARINE OBSERVATIONS

STATION/POSITION TIME  TEMP    WIND        PRES
                       AIR SEA DIR/SP/G
                 (UTC) (F)     (DEG/KT/KT) (MB)
THOMAS PT LIGHT  1000   46 44  170/  2/  3   N/A
BALT KEY BRIDGE  0948   47      80/  3/  3 1026.9R
COVE POINT       0948   46     190/  9/ 10 1026.9F
LEWISETTA        0948   48 49   CALM  /  1 1026.2S
SOLOMONS ISLAND  0942   48 45   90/  4/  4   N/A
PINEY POINT      0948          130/  6/  6   N/A

$$





USA.gov is the U.S. government's official web portal to all federal, state and local government web resources and services.